• In Deutschland
  • Länderverzeichnis
  • Für 7 Tage
  • Wassertemperatur
  • Satellitenkarten
  • Wetterkarte
  • Widgets
  • user-avatar
    Anmelden

    Stündliche Wetter Barra

    Heute, 16 Januar, Dienstag

    Zeit Temperatur Niederschläge Wind Luftdruck Luftfeuchtigkeit
    00:00 +27°C° 1,5 mm 1 m/S 744 mmHg 91%
    01:00 +26°C° 1,5 mm 1 m/S 744 mmHg 93%
    02:00 +26°C° 0,5 mm 1 m/S 744 mmHg 93%
    03:00 +26°C° 0,5 mm 1 m/S 743 mmHg 94%
    04:00 +26°C° 0 mm 1 m/S 743 mmHg 94%
    05:00 +26°C° 0,2 mm 1 m/S 744 mmHg 93%
    06:00 +26°C° 0,2 mm 1 m/S 744 mmHg 92%
    07:00 +26°C° 0,2 mm 1 m/S 744 mmHg 92%
    08:00 +28°C° 0,2 mm 2 m/S 745 mmHg 83%
    09:00 +30°C° 0,2 mm 2 m/S 745 mmHg 74%
    10:00 +31°C° 0 mm 3 m/S 745 mmHg 66%
    11:00 +30°C° 1,6 mm 3 m/S 745 mmHg 72%
    12:00 +29°C° 1,6 mm 4 m/S 745 mmHg 79%
    13:00 +28°C° 1,6 mm 5 m/S 745 mmHg 85%
    14:00 +27°C° 3 mm 5 m/S 745 mmHg 88%
    15:00 +27°C° 3 mm 5 m/S 745 mmHg 91%
    16:00 +26°C° 3 mm 5 m/S 745 mmHg 94%
    17:00 +25°C° 2,4 mm 5 m/S 745 mmHg 95%
    18:00 +25°C° 2,4 mm 5 m/S 745 mmHg 95%
    19:00 +25°C° 2,4 mm 4 m/S 746 mmHg 96%
    20:00 +25°C° 1,7 mm 5 m/S 746 mmHg 96%
    21:00 +25°C° 1,7 mm 5 m/S 746 mmHg 96%
    22:00 +24°C° 1,7 mm 6 m/S 746 mmHg 95%
    23:00 +24°C° 1,8 mm 6 m/S 746 mmHg 95%

    Morgen, 17 Januar, Mittwoch

    Zeit Temperatur Niederschläge Wind Luftdruck Luftfeuchtigkeit
    00:00 +24°C° 1,8 mm 6 m/S 746 mmHg 95%
    01:00 +24°C° 1,8 mm 6 m/S 746 mmHg 94%
    02:00 +24°C° 1,8 mm 6 m/S 746 mmHg 94%
    03:00 +23°C° 1,8 mm 6 m/S 746 mmHg 94%
    04:00 +23°C° 1,8 mm 6 m/S 746 mmHg 94%
    05:00 +23°C° 0,3 mm 6 m/S 746 mmHg 94%
    06:00 +25°C° 0,3 mm 5 m/S 746 mmHg 93%
    07:00 +25°C° 0,3 mm 5 m/S 747 mmHg 93%
    08:00 +25°C° 0,2 mm 5 m/S 747 mmHg 91%
    09:00 +26°C° 0,2 mm 5 m/S 747 mmHg 89%
    10:00 +26°C° 0,2 mm 5 m/S 748 mmHg 88%
    11:00 +26°C° 0,3 mm 5 m/S 747 mmHg 85%
    12:00 +27°C° 0,3 mm 6 m/S 747 mmHg 83%
    13:00 +27°C° 0,3 mm 6 m/S 747 mmHg 81%
    14:00 +26°C° 0,4 mm 5 m/S 747 mmHg 84%
    15:00 +26°C° 0,4 mm 5 m/S 747 mmHg 87%
    16:00 +25°C° 0,4 mm 5 m/S 746 mmHg 89%
    17:00 +25°C° 0,5 mm 5 m/S 747 mmHg 91%
    18:00 +25°C° 0,5 mm 5 m/S 747 mmHg 92%
    19:00 +25°C° 0,5 mm 5 m/S 748 mmHg 93%
    20:00 +25°C° 0,8 mm 5 m/S 748 mmHg 94%
    21:00 +25°C° 0,8 mm 5 m/S 748 mmHg 95%
    22:00 +25°C° 0,8 mm 5 m/S 749 mmHg 95%
    23:00 +25°C° 0,9 mm 5 m/S 748 mmHg 95%

    übermorgen, 18 Januar, Donnerstag

    Zeit Temperatur Niederschläge Wind Luftdruck Luftfeuchtigkeit
    00:00 +25°C° 0,9 mm 5 m/S 748 mmHg 95%
    01:00 +25°C° 0,9 mm 5 m/S 748 mmHg 96%
    02:00 +25°C° 0,9 mm 5 m/S 747 mmHg 96%
    03:00 +25°C° 0,9 mm 5 m/S 747 mmHg 96%
    04:00 +25°C° 0,9 mm 5 m/S 747 mmHg 96%
    05:00 +25°C° 1,1 mm 5 m/S 747 mmHg 96%
    06:00 +25°C° 1,1 mm 5 m/S 748 mmHg 96%
    07:00 +25°C° 1,1 mm 5 m/S 748 mmHg 96%
    08:00 +25°C° 1 mm 5 m/S 748 mmHg 95%
    09:00 +26°C° 1 mm 5 m/S 749 mmHg 95%
    10:00 +26°C° 1 mm 5 m/S 749 mmHg 94%
    11:00 +27°C° 0,9 mm 5 m/S 748 mmHg 92%
    12:00 +27°C° 0,9 mm 5 m/S 748 mmHg 91%
    13:00 +27°C° 0,9 mm 5 m/S 748 mmHg 89%
    14:00 +27°C° 0,9 mm 5 m/S 747 mmHg 90%
    15:00 +27°C° 0,9 mm 5 m/S 747 mmHg 90%
    16:00 +27°C° 0,9 mm 5 m/S 746 mmHg 91%
    17:00 +26°C° 1 mm 5 m/S 747 mmHg 92%
    18:00 +26°C° 1 mm 5 m/S 747 mmHg 94%
    19:00 +25°C° 1 mm 5 m/S 748 mmHg 96%
    20:00 +25°C° 0,8 mm 5 m/S 748 mmHg 95%
    21:00 +25°C° 0,8 mm 5 m/S 748 mmHg 95%
    22:00 +25°C° 0,8 mm 5 m/S 749 mmHg 95%
    23:00 +25°C° 0,2 mm 5 m/S 748 mmHg 95%

    19 Januar, Freitag

    Zeit Temperatur Niederschläge Wind Luftdruck Luftfeuchtigkeit
    00:00 +25°C° 0,2 mm 5 m/S 748 mmHg 95%
    01:00 +25°C° 0,2 mm 5 m/S 748 mmHg 94%
    02:00 +25°C° 0,1 mm 5 m/S 747 mmHg 95%
    03:00 +25°C° 0,1 mm 5 m/S 747 mmHg 95%
    04:00 +23°C° 0,1 mm 4 m/S 747 mmHg 95%
    05:00 +23°C° 0,1 mm 4 m/S 747 mmHg 95%
    06:00 +25°C° 0,1 mm 4 m/S 748 mmHg 95%
    07:00 +25°C° 0,1 mm 4 m/S 748 mmHg 94%
    08:00 +26°C° 0,1 mm 4 m/S 748 mmHg 90%
    09:00 +27°C° 0,1 mm 4 m/S 748 mmHg 85%
    10:00 +28°C° 0,1 mm 5 m/S 748 mmHg 81%
    11:00 +28°C° 0,2 mm 4 m/S 748 mmHg 78%
    12:00 +29°C° 0,2 mm 4 m/S 747 mmHg 74%
    13:00 +29°C° 0,2 mm 4 m/S 747 mmHg 71%
    14:00 +28°C° 0,2 mm 4 m/S 746 mmHg 74%
    15:00 +28°C° 0,2 mm 4 m/S 746 mmHg 76%
    16:00 +27°C° 0,2 mm 3 m/S 746 mmHg 79%
    17:00 +26°C° 0 mm 3 m/S 746 mmHg 82%
    18:00 +26°C° 0 mm 3 m/S 746 mmHg 85%
    19:00 +25°C° 0 mm 3 m/S 747 mmHg 87%
    20:00 +25°C° 0 mm 3 m/S 747 mmHg 89%
    21:00 +25°C° 0 mm 3 m/S 747 mmHg 90%
    22:00 +25°C° 0 mm 3 m/S 748 mmHg 92%
    23:00 +25°C° 0 mm 3 m/S 747 mmHg 92%

    20 Januar, Samstag

    Zeit Temperatur Niederschläge Wind Luftdruck Luftfeuchtigkeit
    00:00 +25°C° 0 mm 3 m/S 747 mmHg 93%
    01:00 +25°C° 0 mm 3 m/S 746 mmHg 93%
    02:00 +25°C° 0 mm 3 m/S 746 mmHg 93%
    03:00 +24°C° 0 mm 3 m/S 746 mmHg 93%
    04:00 +24°C° 0 mm 2 m/S 745 mmHg 93%
    05:00 +25°C° 0 mm 3 m/S 746 mmHg 93%
    06:00 +25°C° 0 mm 3 m/S 746 mmHg 92%
    07:00 +25°C° 0 mm 3 m/S 747 mmHg 91%
    08:00 +26°C° 0 mm 3 m/S 747 mmHg 85%
    09:00 +27°C° 0 mm 3 m/S 747 mmHg 79%
    10:00 +28°C° 0 mm 3 m/S 747 mmHg 73%
    11:00 +29°C° 0 mm 3 m/S 746 mmHg 68%
    12:00 +30°C° 0 mm 4 m/S 746 mmHg 63%
    13:00 +32°C° 0 mm 4 m/S 745 mmHg 58%
    14:00 +32°C° 0 mm 4 m/S 745 mmHg 58%
    15:00 +32°C° 0 mm 4 m/S 745 mmHg 57%
    16:00 +32°C° 0 mm 4 m/S 744 mmHg 56%
    17:00 +30°C° 0 mm 3 m/S 745 mmHg 64%
    18:00 +28°C° 0 mm 3 m/S 745 mmHg 71%
    19:00 +26°C° 0 mm 3 m/S 745 mmHg 79%
    20:00 +26°C° 0 mm 3 m/S 746 mmHg 82%
    21:00 +25°C° 0 mm 2 m/S 746 mmHg 85%
    22:00 +25°C° 0 mm 2 m/S 747 mmHg 88%
    23:00 +25°C° 0 mm 2 m/S 746 mmHg 89%

    21 Januar, Sonntag

    Zeit Temperatur Niederschläge Wind Luftdruck Luftfeuchtigkeit
    00:00 +24°C° 0 mm 2 m/S 746 mmHg 90%
    01:00 +24°C° 0 mm 2 m/S 745 mmHg 92%
    02:00 +24°C° 0,1 mm 2 m/S 745 mmHg 92%
    03:00 +24°C° 0,1 mm 2 m/S 745 mmHg 93%
    04:00 +24°C° 0,1 mm 2 m/S 744 mmHg 93%
    05:00 +24°C° 0 mm 2 m/S 745 mmHg 93%
    06:00 +25°C° 0 mm 2 m/S 745 mmHg 92%
    07:00 +25°C° 0 mm 2 m/S 746 mmHg 91%
    08:00 +27°C° 0,1 mm 2 m/S 746 mmHg 85%
    09:00 +28°C° 0,1 mm 2 m/S 746 mmHg 78%
    10:00 +29°C° 0,1 mm 2 m/S 746 mmHg 71%
    11:00 +30°C° 0,1 mm 3 m/S 746 mmHg 67%
    12:00 +31°C° 0,1 mm 3 m/S 746 mmHg 63%
    13:00 +33°C° 0,1 mm 4 m/S 745 mmHg 58%
    14:00 +30°C° 0,2 mm 3 m/S 745 mmHg 67%
    15:00 +29°C° 0,2 mm 3 m/S 745 mmHg 75%
    16:00 +27°C° 0,2 mm 3 m/S 745 mmHg 84%
    17:00 +27°C° 0,1 mm 3 m/S 745 mmHg 86%
    18:00 +26°C° 0,1 mm 3 m/S 745 mmHg 88%
    19:00 +25°C° 0,1 mm 3 m/S 745 mmHg 89%
    20:00 +25°C° 0 mm 3 m/S 746 mmHg 88%
    21:00 +25°C° 0 mm 3 m/S 746 mmHg 87%
    22:00 +25°C° 0 mm 3 m/S 746 mmHg 86%
    23:00 +25°C° 0 mm 3 m/S 746 mmHg 87%
    Mehr zeigen